ROBUSTA-3A (MEDITERRAN*)

Last updated on Sat Aug 15 2026 00:03:45 GMT+0000 (Coordinated Universal Time)

1 60243U 24128J 26226.59585773 .00004700 00000+0 27877-3 0 9993 2 60243 61.9880 1.5800 0033673 140.1292 220.2287 15.12375934115251
UTC large
Height (km)
Speed (km/s)
/
Latitude / Longitude
Inclination (degrees)
Orbital Period (minutes)
Azimuth
Elevation
Range (km)
Doppler Factor

Next 0 passes for location: London (51.5072 / 0.1276)

No passes found over London.
ROBUSTA-3A (MEDITERRAN*)